WI1SKY Weather Reports


Display with metric or nautical units.
time (UTC)temp
F
wind
direction
speed
MPH
gust
MPH
rain 1hr
in
rain 24hr
in
rain mn
in
humidity
%
barometer
mb
20190522211200 71 225 20.0 20.0 0.00 0.00 0.00 49 1004.4
20190522210158 71 247 11.0 21.0 0.00 0.00 0.00 50 1004.1
20190522205157 71 247 17.0 17.0 0.00 0.00 0.00 51 1004.1
20190522204156 70 247 9.0 13.0 0.00 0.00 0.00 52 1004.1
20190522203155 70 225 8.0 12.0 0.00 0.00 0.00 51 1004.4
20190522202154 70 225 14.0 19.0 0.00 0.00 0.00 51 1004.4
20190522201153 71 225 12.0 16.0 0.00 0.00 0.00 52 1004.4
20190522200152 70 225 11.0 17.0 0.00 0.00 0.00 52 1004.4
20190522195151 70 202 22.0 22.0 0.00 0.00 0.00 52 1004.4
20190522194150 70 202 18.0 22.0 0.00 0.00 0.00 53 1004.1
20190522193149 70 202 17.0 18.0 0.00 0.00 0.00 53 1004.1
20190522192148 70 247 18.0 18.0 0.00 0.00 0.00 53 1004.1
20190522191147 70 180 17.0 28.0 0.00 0.00 0.00 53 1003.7
20190522190146 70 225 18.0 24.0 0.00 0.00 0.00 53 1004.0
20190522185145 70 217 23.0 25.0 0.00 0.00 0.00 52 1004.0
20190522184143 70 225 21.0 23.0 0.00 0.00 0.00 52 1004.1
20190522183142 70 202 14.0 18.0 0.00 0.00 0.00 54 1004.1
20190522182141 69 225 22.0 22.0 0.00 0.00 0.00 56 1004.4
20190522181140 69 202 13.0 22.0 0.00 0.00 0.00 56 1004.0
20190522180139 68 225 22.0 22.0 0.00 0.00 0.00 58 1004.0
20190522175138 68 202 22.0 24.0 0.00 0.00 0.00 60 1004.0
20190522174137 67 180 20.0 20.0 0.00 0.00 0.00 62 1003.6
20190522173136 66 225 22.0 22.0 0.00 0.00 0.00 63 1004.0
20190522172134 66 202 20.0 20.0 0.00 0.00 0.00 65 1003.6
20190522171123 65 225 11.0 17.0 0.00 0.00 0.00 67 1003.9
20190522170120 64 180 15.0 15.0 0.00 0.00 0.00 67 1003.9
20190522165116 63 202 6.0 16.0 0.00 0.00 0.00 69 1003.5
20190522164115 61 202 11.0 21.0 0.00 0.00 0.00 70 1003.5
20190522163114 61 189 10.0 17.0 0.00 0.00 0.00 70 1003.8
20190522162108 61 225 13.0 13.0 0.00 0.00 0.00 69 1003.8
20190522161107 61 202 12.0 16.0 0.00 0.00 0.00 70 1003.4
20190522160106 60 202 15.0 15.0 0.00 0.00 0.00 71 1003.4
20190522155105 60 202 10.0 10.0 0.00 0.00 0.00 73 1003.7
20190522154104 58 157 8.0 8.0 0.00 0.00 0.00 74 1003.7
20190522153103 57 180 7.0 15.0 0.00 0.00 0.00 75 1003.6
20190522150902 56 180 7.0 8.0 0.00 0.00 0.00 78 1004.0
20190522145901 55 180 8.0 11.0 0.00 0.00 0.00 78 1003.9
20190522144857 54 180 7.0 7.0 0.00 0.00 0.00 79 1004.3
20190522143856 53 180 5.0 5.0 0.00 0.00 0.00 79 1003.9
20190522142855 53 157 2.0 4.0 0.00 0.00 0.00 80 1004.3
20190522141854 52 180 2.0 7.0 0.00 0.00 0.00 80 1004.6
20190522140841 51 135 7.0 7.0 0.00 0.00 0.00 80 1004.6
20190522135836 51 202 7.0 7.0 0.00 0.00 0.00 80 1004.2
20190522134834 51 157 3.0 8.0 0.00 0.00 0.00 81 1004.2
20190522125540 49 180 4.0 9.0 0.00 0.00 0.00 80 1004.4
20190522124539 49 112 9.0 9.0 0.00 0.00 0.00 80 1004.4
20190522123538 49 112 9.0 9.0 0.00 0.00 0.00 80 1004.0
20190522122537 48 112 9.0 9.0 0.00 0.00 0.00 80 1004.0
20190522121537 48 112 9.0 9.0 0.00 0.00 0.00 81 1004.0
20190522120536 48 112 9.0 9.0 0.00 0.00 0.00 81 1004.0
20190522115535 48 90 4.0 4.0 0.00 0.00 0.00 81 1004.0
20190522114533 48 90 4.0 7.0 0.00 0.00 0.00 81 1004.0
20190522113532 48 135 7.0 7.0 0.00 0.00 0.00 81 1004.3
20190522112532 47 157 6.0 6.0 0.00 0.00 0.00 80 1004.0
20190522111530 47 157 3.0 10.0 0.00 0.00 0.00 80 1004.3
20190522110528 47 112 5.0 16.0 0.00 0.00 0.00 80 1004.6
20190522105528 47 180 3.0 8.0 0.00 0.00 0.00 80 1004.7
20190522104526 47 112 8.0 8.0 0.00 0.00 0.00 80 1005.0
20190522103525 47 112 4.0 10.0 0.00 0.00 0.00 80 1005.0
20190522102524 47 112 8.0 10.0 0.00 0.00 0.00 79 1005.3
20190522101524 47 135 5.0 13.0 0.00 0.00 0.00 79 1005.4
20190522100522 47 135 13.0 13.0 0.00 0.00 0.00 78 1005.4
20190522095521 47 135 3.0 5.0 0.00 0.00 0.00 78 1005.8
20190522094520 47 112 4.0 5.0 0.00 0.00 0.00 77 1006.2
20190522093519 47 90 5.0 5.0 0.00 0.00 0.00 77 1006.2
20190522092518 47 157 4.0 7.0 0.00 0.00 0.00 77 1006.2
20190522091517 47 180 3.0 8.0 0.00 0.00 0.00 77 1006.2
20190522090516 47 202 7.0 7.0 0.00 0.00 0.00 77 1006.2
20190522085516 47 112 4.0 4.0 0.00 0.00 0.00 77 1005.8
20190522084514 47 157 3.0 8.0 0.00 0.00 0.00 77 1006.2
20190522083514 47 135 5.0 5.0 0.00 0.00 0.00 77 1006.2
20190522082513 47 157 5.0 13.0 0.00 0.00 0.00 77 1005.8
20190522081512 47 135 13.0 13.0 0.00 0.00 0.00 77 1005.8
20190522080511 47 157 9.0 11.0 0.00 0.00 0.00 77 1006.2
20190522075510 46 135 15.0 15.0 0.00 0.00 0.00 77 1006.2
20190522074509 46 157 8.0 8.0 0.00 0.00 0.00 77 1006.5
20190522073508 46 112 10.0 10.0 0.00 0.00 0.00 77 1006.8
20190522072508 46 135 5.0 9.0 0.00 0.00 0.00 77 1006.5
20190522071506 46 157 1.0 5.0 0.00 0.00 0.00 77 1006.8
20190522070505 46 202 5.0 6.0 0.00 0.00 0.00 77 1007.5
20190522065504 46 90 2.0 4.0 0.00 0.00 0.00 76 1007.5
20190522064504 46 112 2.0 6.0 0.00 0.00 0.00 75 1007.5
20190522063502 47 112 4.0 5.0 0.00 0.00 0.00 74 1007.5
20190522062501 47 112 8.0 8.0 0.00 0.00 0.00 73 1007.6
20190522061500 47 112 5.0 11.0 0.00 0.00 0.00 73 1007.6
20190522060459 47 112 8.0 12.0 0.00 0.00 0.00 73 1007.2
20190522055458 47 135 11.0 11.0 0.00 0.00 0.00 73 1007.2
20190522054457 47 180 5.0 9.0 0.00 0.00 0.00 73 1007.5
20190522053456 47 135 9.0 13.0 0.00 0.00 0.00 73 1006.9
20190522052455 46 157 13.0 13.0 0.00 0.00 0.00 73 1007.5
20190522051454 46 112 12.0 15.0 0.00 0.00 0.00 73 1006.8
20190522050453 46 180 0.0 7.0 0.00 0.00 0.00 74 1007.5
20190522045452 46 45 7.0 7.0 0.00 0.00 0.00 75 1007.1
20190522044452 46 135 6.0 12.0 0.00 0.00 0.00 75 1006.5
20190522043451 46 112 8.0 15.0 0.00 0.00 0.00 75 1006.1
20190522042450 46 143 18.0 23.0 0.00 0.00 0.00 75 1005.8
20190522041449 45 157 20.0 25.0 0.00 0.00 0.00 75 1004.8
20190522040448 46 143 14.0 18.0 0.00 0.00 0.00 74 1005.8
20190522035447 46 135 7.0 10.0 0.00 0.00 0.00 74 1007.8
20190522034446 46 135 7.0 8.0 0.00 0.00 0.00 73 1008.8
20190522033444 46 90 5.0 9.0 0.00 0.00 0.00 73 1008.2
20190522032443 46 112 6.0 11.0 0.00 0.00 0.00 71 1009.2
20190522031442 47 112 5.0 7.0 0.00 0.00 0.00 70 1009.9
20190522030441 47 112 4.0 9.0 0.00 0.00 0.00 69 1010.2
20190522025440 47 112 8.0 12.0 0.00 0.00 0.00 67 1009.5
20190522024439 49 180 4.0 13.0 0.00 0.00 0.00 65 1010.2
20190522023438 49 112 11.0 14.0 0.00 0.00 0.00 63 1009.5
20190522022437 49 135 3.0 17.0 0.00 0.00 0.00 63 1009.2
20190522021436 49 67 8.0 13.0 0.00 0.00 0.00 64 1009.1
20190522020435 48 135 7.0 19.0 0.00 0.00 0.00 65 1009.1
20190522015434 48 135 9.0 9.0 0.00 0.00 0.00 67 1009.1
20190522014433 47 157 9.0 13.0 0.00 0.00 0.00 69 1009.4
20190522013432 46 112 2.0 8.0 0.00 0.00 0.00 71 1009.7
20190522012432 46 135 3.0 8.0 0.00 0.00 0.00 72 1009.7
20190522011430 46 112 6.0 16.0 0.00 0.00 0.00 73 1009.7
20190522010430 45 112 16.0 16.0 0.00 0.00 0.00 74 1010.0
20190522005429 45 157 8.0 8.0 0.00 0.00 0.00 74 1010.3
20190522004428 45 112 4.0 4.0 0.00 0.00 0.00 74 1011.0
20190522003427 45 112 4.0 10.0 0.00 0.00 0.00 73 1010.9
20190522002426 45 112 4.0 5.0 0.00 0.00 0.00 72 1010.6
20190522001424 46 135 11.0 11.0 0.00 0.00 0.00 71 1011.6
20190522000424 45 112 7.0 7.0 0.00 0.00 0.00 71 1011.3
20190521235422 45 67 3.0 7.0 0.00 0.00 0.00 71 1011.2
20190521234421 45 90 7.0 10.0 0.00 0.00 0.00 70 1011.6
20190521233420 45 157 8.0 8.0 0.00 0.00 0.00 70 1011.6
20190521232419 46 135 2.0 8.0 0.00 0.00 0.00 68 1011.6
20190521231418 46 135 8.0 8.0 0.00 0.00 0.00 68 1011.9
20190521230416 46 135 5.0 6.0 0.00 0.00 0.00 67 1010.6
20190521225416 46 135 4.0 8.0 0.00 0.00 0.00 66 1012.3
20190521224415 46 112 12.0 12.0 0.00 0.00 0.00 65 1012.9
20190521223414 47 135 14.0 14.0 0.00 0.00 0.00 64 1013.0
20190521222413 47 135 8.0 11.0 0.00 0.00 0.00 63 1013.0
20190521221412 47 112 0.0 8.0 0.00 0.00 0.00 61 1013.3
20190521220411 48 112 8.0 17.0 0.00 0.00 0.00 59 1013.7
20190521215410 50 157 15.0 18.0 0.00 0.00 0.00 55 1013.7
20190521214409 51 90 6.0 8.0 0.00 0.00 0.00 51 1014.8
20190521213408 51 157 7.0 9.0 0.00 0.00 0.00 50 1014.8
20190521212407 51 135 6.0 13.0 0.00 0.00 0.00 49 1014.8